Regional Weather Roundup
Issued by NWS

Home | Current Version | Previous Version | Text Only | Print | Product List | Glossary On
Versions: 1 2 3 4 5 6 7 8 9 10 11 12 13 14 15 16 17 18 19 20 21 22 23 24 25 26 27 28 29 30 31 32 33 34 35 36 37 38 39 40 41 42 43 44 45 46 47 48 49 50
266
ASUS43 KMPX 212201
RWRMN
WEATHER ROUNDUP FOR MINNESOTA
NATIONAL WEATHER SERVICE TWIN CITIES/CHANHASSEN MN
400 PM CST SAT JAN 21 2017


NOTE: "FAIR" INDICATES FEW OR NO CLOUDS BELOW 12,000 FEET WITH NO
SIGNIFICANT WEATHER AND/OR OBSTRUCTIONS TO VISIBILITY. N/A MEANS
CURRENT SKY AND/OR WEATHER CONDITIONS ARE NOT AVAILABLE.

MNZ060>063-068>070-212300-
   Twin Cities Metro

CITY           SKY/WX    TMP DP  RH WIND       PRES   REMARKS
TWIN CITIES    DRIZZLE   38  35  89 CALM      29.44R FOG
ST PAUL        LGT RAIN  37  37 100 CALM      29.45R FOG
CRYSTAL        CLOUDY    37  34  89 CALM      29.42R FOG
BLAINE         CLOUDY    39  39 100 CALM      29.43R FOG
LAKEVILLE      FOG       34  34 100 CALM      29.43R VSB 3/4
EDEN PRAIRIE   CLOUDY    38  35  89 CALM      29.42R
SOUTH ST PAUL  CLOUDY    37  37  99 CALM      29.44R FOG
LAKE ELMO      FOG       36  36 100 CALM      29.44R VSB 1/4
$$
MNZ001>005-007-008-013>017-022>024-027-028-212300-
   Northwest Minnesota

CITY           SKY/WX    TMP DP  RH WIND       PRES   REMARKS
BEMIDJI        CLOUDY    34  33  97 E5        29.46R WCI  30
HALLOCK        CLOUDY    36  36 100 E7        29.47R FOG
ROSEAU         CLOUDY    36  30  80 E7        29.48R
WARROAD        CLOUDY    34  30  86 E7        29.49R FOG     WCI  28
THIEF RVR FALL LGT RAIN  35  32  88 SE5       29.48R WCI  31
CROOKSTON      MIX PCPN  36  34  93 CALM      29.47R
FOSSTON        DRIZZLE   34  34 100 CALM      29.46R
DETROIT LAKES  CLOUDY    36  36 100 E3        29.44R
MOORHEAD       CLOUDY    36  34  93 CALM      29.45R
PARK RAPIDS    CLOUDY    37  33  85 E6        29.43R
MAHNOMEN       CLOUDY    36  34  95 CALM      29.44R
$$
MNZ006-009>011-018-025>026-212300-
   North Central Minnesota

CITY           SKY/WX    TMP DP  RH WIND       PRES   REMARKS
BAUDETTE       CLOUDY    35  33  92 E7        29.48R WCI  29
FLAG ISLAND    CLOUDY    36  34  93 E5        29.50R
INTL FALLS     CLOUDY    36  33  89 NE3       29.49R
WASKISH        CLOUDY    37  36  93 E5        29.48R
BIG FORK       CLOUDY    37  34  87 E3        29.47R
LONGVILLE      CLOUDY    36  36 100 CALM      29.45R
GRAND RAPIDS   LGT RAIN  36  35  96 CALM      29.47R
CRANE LAKE     CLOUDY    36  34  93 CALM      29.51R
ORR            CLOUDY    36  32  87 CALM      29.46R
COOK           CLOUDY    36  36 100 CALM      29.48R
WALKER         FOG       34  33  99 NE3       29.46R VSB 1
$$
MNZ012-019>021-037-212300-
   Northeast Minnesota

CITY           SKY/WX    TMP DP  RH WIND       PRES   REMARKS
DULUTH         DRIZZLE   35  34  96 E10       29.45R FOG     WCI  27
ELY            CLOUDY    36  34  93 NE6       29.47S
HIBBING        CLOUDY    34  34 100 NE5       29.45R WCI  30
EVELETH        CLOUDY    37  37  97 NE5       29.47R
DULUTH HARBOR  CLOUDY    34  34 100 NE9       29.49R WCI  26
TWO HARBORS    CLOUDY    37  34  87 NE10      29.45R
SILVER BAY     CLOUDY    36  36 100 NE8G16    29.46R FOG
GRAND MARAIS     N/A     38  36  92 NE8       29.50S
G MARAIS ARPRT CLOUDY    34  28  80 NE9       29.47S WCI  26
$$
MNZ029>031-032-039>041-046>048-054>057-064-212300-
   West Central Minnesota

CITY           SKY/WX    TMP DP  RH WIND       PRES   REMARKS
FERGUS FALLS   CLOUDY    36  36 100 E6        29.46R
WHEATON        CLOUDY    43  43 100 CALM      29.45R FOG
MORRIS         FOG       36  34  93 E5        29.41R VSB 1/4
ALEXANDRIA     FOG       34  34 100 E8        29.42R VSB 1/2 WCI  27
ELBOW LAKE     CLOUDY    35  34  99 E8        29.42R FOG     WCI  28
WADENA         DRIZZLE   34  34 100 NE5       29.43R WCI  30
GLENWOOD       FOG       34  34 100 E7        29.42R VSB<1/4 WCI  28
APPLETON       FOG       36  34  93 CALM      29.42R VSB<1/4
BENSON         CLOUDY    37  34  87 SE3       29.43R
ORTONVILLE     FOG       34  32  93 CALM      29.42R VSB<1/4
MADISON        FOG       37  37 100 CALM      29.42R VSB<1/4
WILLMAR        FOG       36  36 100 CALM      29.43R VSB 1/4
$$
MNZ033>034-036-042>043-049>051-058-059-212300-
   Central Minnesota

CITY           SKY/WX    TMP DP  RH WIND       PRES   REMARKS
ST CLOUD       FOG       35  35 100 NE5       29.42R VSB 1/4 WCI  31
SAUK CENTRE    FOG       34  34 100 E3        29.43R VSB<1/4
PAYNESVILLE    SNOW      35  35 100 CALM      29.43R VSB 1/4
AITKIN         CLOUDY    37  34  87 NE5       29.44R
PINE RIVER     CLOUDY    36  36 100 E3        29.49R
BRAINERD       FOG       35  35 100 NE6       29.45R VSB 1   WCI  30
STAPLES        FOG       34  34 100 NE3       29.44R VSB 3/4
LONG PRAIRIE   SNOW      34  34 100 CALM      29.42R VSB<1/4
LITTLE FALLS   FOG       34  34 100 CALM      29.44R VSB 1/2
LITCHFIELD     FOG       36  36 100 CALM      29.43R VSB<1/4
BUFFALO        FOG       36  35  96 NE3       29.44R VSB 1/4
MAPLE LAKE     FOG       37  37 100 CALM      29.43R VSB 1/4
HUTCHINSON     FOG       36  37 100 CALM      29.43R VSB<1/4
$$
MNZ037-044-045-052-053-212300-
   East Central Minnesota

CITY           SKY/WX    TMP DP  RH WIND       PRES   REMARKS
PRINCETON      FOG       37  36  93 N3        29.43R VSB 1/4
MORA           CLOUDY    36  36 100 CALM      29.45R FOG
CAMBRIDGE      FOG       37  37 100 CALM      29.42R VSB 1
RUSH CITY      FOG       36  34  93 N3        29.44R VSB 1/2
MOOSE LAKE     CLOUDY    34  32  93 NE5       29.43R FOG     WCI  30
HINCKLEY       CLOUDY    36  36 100 CALM      29.44R FOG
CLOQUET        CLOUDY    34  34 100 E12G17    29.45R WCI  25
MCGREGOR       CLOUDY    36  34  93 E6        29.45R
$$
MNZ071>073-080-081-089-090-097-098-212300-
   Southwest Minnesota

CITY           SKY/WX    TMP DP  RH WIND       PRES   REMARKS
MONTEVIDEO     FOG       34  34 100 SE3       29.43R VSB<1/4
GRANITE FALLS  FOG       37  37 100 CALM      29.43R VSB<1/4
CANBY          FOG       36  36  99 CALM      29.42R VSB 1/4
MARSHALL       CLOUDY    37  36  96 E3        29.41R FOG
REDWOOD FALLS  FOG       36  35  96 E3        29.41R VSB 1/4
OLIVIA         FOG       34  34 100 E3        29.41R VSB 1/2
PIPESTONE      CLOUDY    32  32 100 W9        29.40R FOG     WCI  24
WINDOM         CLOUDY    37  37 100 SW5       29.40R FOG
WORTHINGTON    CLOUDY    32  32 100 SW14      29.41R WCI  22
JACKSON        FOG       34  34 100 SW8       29.41R VSB 3/4 WCI  27
TRACY          CLOUDY    38  38 100 CALM      29.40R FOG
SLAYTON        FOG       33  33 100 W9        29.40R VSB 1   WCI  25
$$
MNZ065>067-074>077-082>085-091>093-212300-
   South Central Minnesota

CITY           SKY/WX    TMP DP  RH WIND       PRES   REMARKS
MANKATO        FOG       37  36  96 CALM      29.43R VSB 1/4
NEW ULM        CLOUDY    37  37 100 CALM      29.42R FOG
ST JAMES       FOG       37  37 100 CALM      29.42R VSB 3/4
FAIRMONT       CLOUDY    38  37  97 SW5       29.42R FOG
GLENCOE        FOG       37  37 100 CALM      29.43R VSB 1/4
OWATONNA       FOG       37  36  93 CALM      29.42R VSB 1/4
WASECA         CLOUDY    36  36 100 CALM      29.43R FOG
ALBERT LEA     FOG       37  37 100 SW3       29.41R VSB 1/4
$$
MNZ078>079-086>088-094>096-212300-
   Southeast Minnesota

CITY           SKY/WX    TMP DP  RH WIND       PRES   REMARKS
ROCHESTER      CLOUDY    35  35 100 S8        29.43R FOG     WCI  29
RED WING       SNOW      37  36  93 CALM      29.43R VSB 1/4
STANTON        FOG       37  35  94 CALM      29.41R VSB 1/4
DODGE CENTER   FOG       36  36 100 CALM      29.42R VSB 1/4
WINONA         FOG       36  36 100 CALM      29.45R VSB 1/4
AUSTIN         FOG       36  36 100 CALM      29.42R VSB<1/4
PRESTON        FOG       36  35  97 SW6       29.43R VSB<1/4
$$
ABBREVIATIONS USED IN REMARKS
   TC - TEMPERATURES IN CELSIUS
  WCI - WIND CHILL INDEX
   HX - HEAT INDEX
  VSB - VISIBILITY
$$




USA.gov is the U.S. government's official web portal to all federal, state and local government web resources and services.